Regional Weather Roundup
Issued by NWS Sterling, VA

Home | Current Version | Previous Version | Graphics & Text | Print | Product List | Glossary On
Versions: 1 2 3 4 5 6 7 8 9 10 11 12 13 14 15 16 17 18 19 20 21 22 23 24 25 26 27
000
ASUS41 KLWX 172010
RWRLWX

REGIONAL WEATHER ROUNDUP
NATIONAL WEATHER SERVICE BALTIMORE MD/WASHINGTON DC
400 PM EDT THU APR 17 2014

Note: "FAIR" indicates few or no clouds below 12,000 feet
with no significant weather and/or obstructions to visibility.
 TC=TEMPERATURE CELSIUS

 * =Non NWS site. Station does not report precipitation (e.g. rain,
    snow, etc.), thunder, or fog.

DCZ001-MDZ009-015-VAZ040>042-051-053>054-172100-
WASHINGTON METRO

CITY           SKY/WX    TMP DP  RH WIND       PRES   REMARKS
WASHINGTON NAT PTSUNNY   55  33  43 E10       30.58F
DULLES         PTSUNNY   53  30  41 E9G17     30.55F
ANDREWS AFB    SUNNY     52  33  48 E10       30.57F
FT BELVOIR     SUNNY     55  30  38 NE7       30.57F
QUANTICO       MOSUNNY   55  33  43 SW5       30.56F
COLLEGE PARK*  SUNNY     54  32  43 E8G16     30.58F
LEESBURG*      SUNNY     54  32  43 E8        30.55F
MANASSAS*      SUNNY     55  30  38 SE6       30.55F
GAITHERSBURG*  SUNNY     54  30  40 E12       30.58F

$$

MDZ006>007-011-014-172100-
BALTIMORE METRO

CITY           SKY/WX    TMP DP  RH WIND       PRES   REMARKS
BWI AIRPORT    PTSUNNY   51  30  44 E9G18     30.58F
MD SCIENCE CTR   N/A     53  33  46 MISG      30.60F
MARTIN STATE   MOSUNNY   54  34  47 E8        30.61F
ANNAPOLIS      MOSUNNY   50  33  52 E12       30.60F
FORT MEADE*    SUNNY     52  32  46 E13G18    30.60F

$$

MDZ012-015-019>023-172100-
MARYLAND EASTERN SHORE

CITY           SKY/WX    TMP DP  RH WIND       PRES   REMARKS
OCEAN CITY     CLOUDY    46  34  62 NE18G25   30.61F
SALISBURY      PTSUNNY   51  32  48 E20       30.59F
BAY BRIDGE AP* MOSUNNY   50  30  46 NE9       30.60F
CAMBRIDGE*     MOSUNNY   52  32  46 NE8       30.59F
EASTON*        MOSUNNY   54  36  50 E9G18     30.64F

$$

MDZ017>025-172100-
SOUTHERN MARYLAND

CITY           SKY/WX    TMP DP  RH WIND       PRES   REMARKS
PATUXENT RIVER PTSUNNY   52  33  48 E12       30.57F
ST INIGOES     MOSUNNY   51  33  50 E10G20    30.57F
LEONARDTOWN*   MOSUNNY   52  32  46 E8        30.59F

$$

MDZ003>005-172100-
NORTH CENTRAL MARYLAND

CITY           SKY/WX    TMP DP  RH WIND       PRES   REMARKS
FREDERICK*     SUNNY     57  36  44 S8        30.57F
HAGERSTOWN APT MOSUNNY   55  24  30 S13G18    30.52F
WESTMINSTER*   SUNNY     55  28  35 SE8       30.55F

$$

MDZ501>502-172100-
WESTERN MARYLAND

CITY           SKY/WX    TMP DP  RH WIND       PRES   REMARKS
OAKLAND*       SUNNY     50  10  20 E16G23    30.41F
CUMBERLAND*    SUNNY     59  27  29 S5        30.52F

$$

VAZ025>031-172100-
SHENANDOAH VALLEY

CITY           SKY/WX    TMP DP  RH WIND       PRES   REMARKS
WINCHESTER*    MOSUNNY   55  27  33 E13       30.51F
STAUNTON*      SUNNY     55  23  29 SE7       30.51F

$$

WVZ021-048>050-054>055-172100-
EASTERN WEST VIRGINIA PANHANDLE

CITY           SKY/WX    TMP DP  RH WIND       PRES   REMARKS
MARTINSBURG    MOSUNNY   56  24  29 SE13      30.53F
PETERSBURG*    SUNNY     62  33  33 SE8       30.46F

$$

VAZ036>039-050-172100-
CENTRAL FOOTHILLS

CITY           SKY/WX    TMP DP  RH WIND       PRES   REMARKS
CHARLOTTESVILL MOSUNNY   57  26  30 E6        30.51F
CULPEPER*      MOSUNNY   59  23  25 E6        30.54F

$$

VAZ055>057-172100-
NORTH AND CENTRAL PIEDMONT

CITY           SKY/WX    TMP DP  RH WIND       PRES   REMARKS
FREDERICKSBRG* MOSUNNY   55  30  38 E9        30.55F
STAFFORD*      MOSUNNY   56  32  40 E5        30.59F

$$

NCZ024-NYZ072-PAZ021-071-VAZ022-071-172100-
OTHER REGIONAL OBSERVATIONS

CITY           SKY/WX    TMP DP  RH WIND       PRES   REMARKS
NEW YORK CITY  CLOUDY    47  27  45 CALM      30.70F
PHILADELPHIA   MOSUNNY   52  29  41 E13       30.64F
PITTSBURGH     MOSUNNY   62  26  25 S10       30.37F
ROANOKE        MOSUNNY   54  22  28 S8        30.50F
RICHMOND       CLOUDY    59  32  36 E8        30.52F
RALEIGH        PTSUNNY   63  33  32 E12G17    30.46F

$$

ANZ530>537-172100-
MARINE OBSERVATIONS

STATION/POSITION TIME  TEMP    WIND        PRES
                       AIR SEA DIR/SP/G
                 (UTC) (F)     (DEG/KT/KT) (MB)
THOMAS PT LIGHT  2000   48 53   90/ 13/ 15 1036.5F
BALT KEY BRIDGE  2000   48     120/  8/ 10 1036.4F
COVE POINT       2000   49     100/  6/  8 1035.6F
LEWISETTA        2000   49 53   70/  6/  9 1035.2F
SOLOMONS ISLAND  2000      52                N/A
PINEY POINT      2000          110/ 12/ 15   N/A

$$




USA.gov is the U.S. government's official web portal to all federal, state and local government web resources and services.